Location: Clairmont
(55.2667°N, 118.8000°W)
Time: 14:19:27
(UTC+00:00)

Envisat - Pass Details

Date: 31 October 2020
Orbit: 764 x 766 km, 98.1° (Epoch: 03 December)

Event Time Altitude Azimuth Distance (km) Brightness Sun altitude
Rises 00:47:29 0° 165° (SSE) 3,225 6.3 -4.5°
Reaches altitude 10° 00:49:46 10° 166° (SSE) 2,302 5.6 -4.8°
Maximum altitude 00:54:52 82° 255° (WSW) 782 3.2 -5.5°
Drops below altitude 10° 01:00:00 10° 343° (NNW) 2,318 5.5 -6.2°
Sets 01:02:19 0° 345° (NNW) 3,249 6.3 -6.5°
